• Join FlightAware (Why Join?)
  • Login
  • US Flag 
12:48AM EST


 

Airport Tracker/Info


-or-


 

Live Flight TrackerFlight Track Log ✈ SKZ7121 ✈ 08-Apr-2014 ✈ MYNN / NAS - KMIA

Flight Track Log - Related Links

Times and Time Zones

All times are in EDT time to prevent confusion due to time zone crossing. See the SKZ7121 flight status page for this flight to view local times or setup timezone preferences in your user account.

Time Position Orientation Groundspeed Altitude Reporting Facility
EDT Latitude Longitude Course Direction KTS MPH feet Rate Location/Type
07:27PM 25.0342 -77.5436 276° West 137 158 2,600  Level Miami Center
07:28PM 25.0381 -77.5836 276° West 136 157 3,700 927 Climbing Miami Center
07:29PM 25.0492 -77.6225 288° West 138 159 4,500 829 Climbing Miami Center
07:30PM 25.0531 -77.6611 276° West 133 153 5,400 876 Climbing Miami Center
07:32PM 25.0694 -77.7442 279° West 133 153 7,200 843 Climbing Miami Center
07:33PM 25.0733 -77.7842 276° West 133 153 8,000 435 Climbing Miami Center
07:34PM 25.0769 -77.8281 275° West 137 158 8,100 32 Climbing Miami Center
07:36PM 25.0958 -77.9314 281° West 161 185 8,100  Level Miami Center
07:37PM 25.1047 -77.9806 281° West 161 185 8,100  Level Miami Center
07:39PM 25.1300 -78.0764 278° West 161 185 8,100  Level Miami Center
07:40PM 25.1433 -78.1289 286° West 161 185 8,100  Level Miami Center
07:41PM 25.1553 -78.1764 286° West 161 185 8,100  Level Miami Center
07:43PM 25.1664 -78.2247 284° West 161 185 8,100 -49 Level Miami Center
07:44PM 25.1733 -78.2731 279° West 161 185 8,000  Descending Miami Center
07:45PM 25.1739 -78.3278 271° West 161 185 8,100 49 Climbing Miami Center
07:46PM 25.1750 -78.3769 271° West 161 185 8,100  Level Miami Center
07:48PM 25.1850 -78.4775 276° West 162 186 8,100  Level Miami Center
07:50PM 25.1975 -78.5842 277° West 166 191 8,100 32 Level Miami Center
07:51PM 25.2075 -78.6333 283° West 166 191 8,200  Climbing Miami Center
07:52PM 25.2150 -78.6842 279° West 166 191 8,100  Descending Miami Center
07:53PM 25.2119 -78.7342 266° West 163 188 8,200 -32 Climbing Miami Center
07:55PM 25.1861 -78.8286 253° West 168 193 8,000 -65 Descending Miami Center
07:56PM 25.1494 -78.8508 209° Southwest 155 178 8,000 49 Level Miami Center
07:57PM 25.1153 -78.8769 215° Southwest 154 177 8,100 48 Climbing Miami Center
07:58PM 25.0747 -78.9031 210° Southwest 153 176 8,100  Level Miami Center
07:59PM 25.0386 -78.9269 211° Southwest 153 176 8,100  Level Miami Center
08:00PM 25.0056 -78.9528 215° Southwest 153 176 8,100 49 Level Miami Center
08:01PM 24.9731 -78.9847 222° Southwest 154 177 8,200  Climbing Miami Center
08:02PM 24.9414 -79.0158 222° Southwest 154 177 8,100  Descending Miami Center
08:03PM 24.9142 -79.0500 229° Southwest 152 175 8,200 -49 Climbing Miami Center
08:04PM 24.9042 -79.0908 255° West 161 185 8,000 -49 Descending Miami Center
08:05PM 24.9664 -79.1214 336° Northwest 203 234 8,100 49 Climbing Miami Center
08:06PM 25.0156 -79.1486 333° Northwest 198 228 8,100 49 Level Miami Center
08:07PM 25.0631 -79.1764 332° Northwest 197 227 8,200  Climbing Miami Center
08:08PM 25.0983 -79.2164 314° West 186 214 8,100  Descending Miami Center
08:09PM 25.1311 -79.2586 311° West 181 208 8,200 -130 Climbing Miami Center
08:11PM 25.1969 -79.3458 301° West 183 211 7,700 -389 Descending Miami Center
08:12PM 25.2217 -79.3972 298° West 185 213 7,000 -732 Descending Miami Center
08:13PM 25.2533 -79.4575 300° West 186 214 6,200 -450 Descending Miami Center
08:14PM 25.2803 -79.5019 304° West 175 201 6,100 -133 Descending Miami Center
08:15PM 25.2936 -79.5236 304° West 166 191 6,000 -61 Descending Miami Center
08:16PM 25.3244 -79.5719 305° West 172 198 6,000 64 Level Miami Center
08:16PM 25.3347 -79.5897 303° West 174 200 6,100  Climbing Miami Center
08:17PM 25.3550 -79.6225 304° West 178 205 6,000  Descending Miami Center
08:17PM 25.3603 -79.6344 296° West 174 200 6,100 98 Climbing Miami Center
08:18PM 25.3775 -79.6678 300° West 161 185 6,100  Level Miami Center
08:18PM 25.3825 -79.6769 301° West 162 186 6,100 -109 Level Miami Center
08:19PM 25.3981 -79.7064 300° West 164 189 6,000  Descending Miami Center
08:19PM 25.4058 -79.7211 300° West 163 188 6,100 98 Climbing Miami Center
08:20PM 25.4428 -79.7303 347° North 220 253 6,100 -65 Level Miami Center
08:21PM 25.5008 -79.7392 352° North 206 237 6,000  Descending Miami Center
08:21PM 25.5278 -79.7453 348° North 205 236 6,100  Climbing Miami Center
08:22PM 25.5628 -79.7528 349° North 204 235 6,000  Descending Miami Center
08:23PM 25.5836 -79.7564 351° North 204 235 6,100 -436 Climbing Miami Center
08:23PM 25.6150 -79.7589 356° North 208 239 5,600 -1,082 Descending Miami Center
08:24PM 25.6425 -79.7636 351° North 210 242 5,000 -986 Descending Miami Center
08:24PM 25.6875 -79.7689 354° North 215 247 4,400 -774 Descending Miami Center
08:25PM 25.7025 -79.7703 355° North 218 251 4,200 -1,279 Descending Miami Center
08:25PM 25.7406 -79.7936 331° Northwest 202 232 3,100 -706 Descending Miami Center
08:26PM 25.7778 -79.8356 315° West 181 208 3,000 -52 Descending Miami Center
08:27PM 25.8092 -79.8703 315° West 178 205 3,000  Level Miami Center
08:28PM 25.8167 -79.8822 305° West 180 207 3,000 -98 Level Miami Center
08:28PM 25.8250 -79.9200 284° West 165 190 2,900 98 Descending Miami Center
08:29PM 25.8272 -79.9325 281° West 171 197 3,100  Climbing Miami Center
08:29PM 25.8239 -79.9731 265° West 161 185 2,900 -97 Descending Miami Center
08:30PM 25.8256 -79.9914 276° West 164 189 3,000  Climbing Miami Center
08:30PM 25.8233 -80.0194 265° West 162 186 2,900  Descending Miami Center
08:31PM 25.8236 -80.0417 271° West 164 189 3,000 -109 Climbing Miami Center
08:31PM 25.8203 -80.0653 261° West 162 186 2,800 -97 Descending Miami Center
08:32PM 25.8164 -80.0906 260° West 163 188 2,900 -740 Climbing Miami Center
08:32PM 25.8103 -80.1247 259° West 157 181 1,900 -1,180 Descending Miami Center
08:33PM 25.8100 -80.1372 269° West 158 182 1,700 -590 Descending Miami Center
08:33PM 25.8078 -80.1686 266° West 144 166 1,300 -393 Descending Miami Center
08:34PM 25.8083 -80.1800 273° West 143 165 1,300 -218 Level Miami Center
08:34PM 25.8075 -80.2056 268° West 123 142 1,100 -290 Descending Miami Center
08:35PM 25.8067 -80.2200 266° West 131 151 1,000 -492 Descending Miami Center
08:35PM 25.8047 -80.2469 265° West 135 155 600 -492 Descending Miami Center
08:36PM 25.8053 -80.2594 273° West 130 150 500 -200 Descending Miami Center
08:38PM 25.7833 -80.2887 90° East  Level FlightAware Approximate
08:45PM 25.7833 -80.2833 90° East  Level FlightAware Approximate
08:46PM 25.7833 -80.3057 90° East  Level FlightAware Approximate
08:47PM 25.7833 -80.2833 90° East  Level FlightAware Approximate
08:48PM 25.7833 -80.3057 90° East  Level FlightAware Approximate
08:49PM 25.7833 -80.2833 90° East  Level FlightAware Approximate
08:50PM 25.7833 -80.3057 90° East  Level FlightAware Approximate